Back to catalog

DELTA 1 DEB

AliveLEO
NORAD 10471·DEBRIS·🇺🇸 United States

Launched Jul 14, 1977 from Cape Canaveral Space Force Station

Loading…

Next Passes (next 24 hours)

TLE

FreshSource: Space-Track

Epoch: Sep 14, 2026, 09:13 UTC

1 10471U 77065ED  26257.38413391  .00000833  00000-0  22243-3 0  9992
2 10471  29.0564 146.4190 0842676 103.5630 266.0116 13.26106818365223

Track DELTA 1 DEB in real time with AllMySat

Download on the App Store